Wind_Speed
1 4 5 3 3 5 2 2 1 3 3 3 12 5 6 4 1 3 19 13 17 18 19 16 14 13 14 15 13 12 14 14 13 11 9 10 11 13 14 16 16 15 16 16 16 18 17 18 19
2 3 3 1 5 4 2 4 1 2 7 15 13 10 6 4 5 19 21 17 17 19 17 15 13 11 15 15 14 13 14 12 10 8 11 12 13 14 15 16 16 16 17 15 18 19 20 20 21
1 1 1 3 3 2 1 4 3 7 18 5 6 9 4 2 16 23 20 21 20 19 18 17 16 13 13 14 14 9 10 11 12 11 11 12 13 13 15 15 15 15 16 18 19 21 20 19 18
1 1 4 4 8 5 3 5 10 6 4 5 16 7 7 8 14 17 23 20 18 17 16 18 17 16 15 15 13 10 12 13 13 12 12 13 13 13 14 14 15 15 16 19 19 15 15 16 17
3 2 4 3 4 3 5 8 5 2 4 9 8 5 7 6 10 22 21 20 19 18 18 17 16 17 18 15 11 10 10 12 12 13 13 15 15 13 14 13 14 14 16 17 16 19 16 16 18
2 2 4 3 3 4 3 7 13 3 6 10 11 9 4 4 14 21 19 18 16 17 17 17 17 19 16 10 8 6 8 11 12 13 14 14 14 13 13 14 14 12 16 16 16 13 14 15 16
5 3 3 4 4 3 5 11 11 7 7 6 13 5 6 11 17 18 16 16 16 17 17 16 15 12 11 10 9 9 11 11 11 12 13 13 12 12 13 13 11 13 15 16 14 15 15 16 14
6 3 3 2 6 4 2 6 9 10 2 17 13 5 8 19 19 18 16 16 16 17 16 17 15 13 12 10 11 11 11 12 12 12 13 12 12 12 13 12 12 14 16 16 14 13 12 11 12
3 4 2 2 4 3 3 3 2 2 17 4 5 10 23 24 21 19 17 17 16 16 16 17 15 13 13 11 10 10 11 12 12 13 12 13 14 15 14 14 14 14 16 14 12 10 9 9 8
3 3 5 6 5 6 9 8 3 2 14 6 10 18 26 24 23 21 22 20 19 19 19 18 15 13 12 12 12 11 12 12 12 13 14 15 17 17 17 17 16 15 14 14 12 10 8 5 5
1 2 4 6 11 8 5 1 5 3 4 10 24 30 28 26 23 21 21 21 20 19 18 18 16 14 13 11 12 12 14 15 15 14 15 17 19 21 21 20 19 17 15 13 10 8 6 3 3
1 2 3 10 11 6 2 1 6 7 1 12 28 31 28 27 24 21 20 21 20 21 19 17 16 15 13 13 13 16 16 16 15 15 15 16 19 20 17 14 13 12 12 11 9 7 5 4 3
2 3 6 11 13 10 8 2 3 9 6 15 28 30 27 25 24 22 19 18 19 20 20 19 18 16 14 14 18 17 15 13 14 13 14 16 16 14 11 9 8 11 12 12 9 7 6 4 3
2 9 11 7 5 6 6 2 5 5 15 25 31 31 28 26 24 25 22 19 20 20 19 19 19 17 16 17 19 16 14 13 13 14 15 15 12 9 7 7 7 8 12 12 11 9 8 7 7
9 6 6 7 9 4 11 2 5 2 19 27 31 32 30 28 25 27 22 19 18 20 18 20 20 20 19 20 17 15 13 15 14 14 13 9 9 9 7 5 6 7 12 9 8 7 5 4 6
2 3 3 3 8 7 7 4 6 9 20 24 28 31 30 30 28 28 25 22 21 19 21 20 22 21 21 21 19 15 14 17 14 9 9 10 10 8 5 4 5 7 6 4 6 3 3 5 4
3 1 2 3 8 4 5 4 5 16 20 22 23 27 29 29 28 28 27 24 22 20 21 21 24 21 20 18 17 18 16 15 12 10 9 8 7 6 5 4 5 4 2 2 4 3 2 4 6
4 3 3 4 6 5 5 7 5 14 23 20 26 27 29 32 28 25 28 27 21 22 21 21 24 19 20 17 18 19 18 17 14 12 9 7 8 6 6 5 6 5 3 1 4 4 1 6 6
3 2 4 3 8 5 7 5 5 8 10 18 22 26 32 34 32 24 27 28 22 22 21 22 26 21 22 21 22 20 19 21 16 15 14 8 9 7 8 8 10 8 6 3 4 6 3 4 5
0 3 4 2 7 4 7 11 5 10 10 22 27 29 32 34 32 29 27 28 25 20 21 23 25 25 21 19 18 19 20 20 15 13 15 10 9 10 9 10 8 10 9 7 7 4 4 4 3
3 4 4 3 5 3 2 3 4 2 5 17 23 30 30 39 34 30 27 27 27 23 22 20 22 27 24 25 16 21 23 20 16 16 13 10 8 9 9 9 11 10 12 12 9 8 7 6 5
3 8 8 10 4 3 3 3 2 2 5 9 20 23 28 31 34 31 30 29 28 25 23 19 19 23 24 22 23 23 22 20 20 13 12 11 9 7 9 6 7 11 14 16 12 11 10 9 9
10 3 5 4 3 3 1 3 3 2 2 7 12 21 25 31 35 31 31 31 27 27 24 22 22 23 24 23 28 23 21 21 18 16 13 12 11 10 11 10 7 5 11 12 13 11 12 12 11
5 7 8 4 3 3 3 4 4 2 4 4 7 23 22 29 33 33 34 33 30 28 28 25 25 23 26 28 29 29 24 22 20 18 16 16 12 11 13 14 12 7 9 10 10 10 10 11 11
5 7 3 4 4 5 2 3 7 4 6 6 9 17 29 32 33 35 37 37 33 30 29 29 28 26 26 29 31 31 26 23 22 19 16 18 14 12 11 12 13 11 10 12 13 9 8 9 10
2 7 6 5 4 4 2 4 5 4 5 8 13 13 20 34 34 39 37 35 32 34 31 30 30 29 27 29 33 32 29 27 24 24 18 17 17 15 13 11 13 14 12 12 13 13 11 10 10
4 3 3 7 3 3 2 4 5 3 4 7 8 7 7 22 28 29 33 37 36 37 35 31 32 27 28 29 33 33 31 32 29 27 21 19 18 18 17 14 14 13 15 13 13 14 14 15 13
4 4 3 3 4 3 4 4 5 6 7 4 6 7 7 9 24 28 29 34 32 37 37 32 32 29 26 29 31 33 31 31 30 28 23 21 18 20 19 19 17 14 13 13 12 13 15 15 14
2 1 7 5 3 5 2 6 4 7 6 5 7 9 9 8 13 23 29 34 37 37 35 33 32 31 28 27 29 31 32 33 32 30 27 24 19 19 17 18 18 17 15 17 16 16 16 16 14
2 5 5 5 3 2 4 6 2 6 8 7 10 8 5 7 11 16 27 34 33 37 33 32 31 30 29 28 28 27 30 33 34 34 30 27 24 22 22 20 20 20 20 23 25 19 15 16 16
Wind_Direction
62 23 17 18 65 67 43 317 61 89 117 117 135 117 110 50 52 153 138 144 155 147 142 147 146 150 149 150 139 140 132 123 120 117 115 111 113 116 110 110 116 118 116 115 113 109 112 111 109
77 39 26 11 77 52 337 337 109 155 130 120 97 107 54 69 86 136 139 142 153 147 146 143 142 146 153 151 140 143 141 131 117 111 118 117 117 118 113 112 108 107 104 108 109 110 107 103 103
79 34 2 77 84 74 98 344 41 106 127 125 104 87 72 40 127 138 147 145 145 139 138 134 130 127 132 128 127 136 130 126 130 124 120 120 122 121 118 116 113 117 116 112 111 111 105 100 100
182 61 52 65 92 21 355 43 87 146 142 110 116 76 77 127 131 151 149 146 144 139 138 136 136 133 129 128 136 128 131 136 116 118 115 118 122 118 115 118 114 109 113 113 111 109 107 98 95
93 86 63 72 54 9 350 45 158 267 61 99 125 110 83 122 140 149 152 149 148 140 138 138 135 133 122 112 114 119 122 120 117 115 120 114 115 111 116 117 110 111 120 115 106 113 106 96 93
72 73 70 79 74 358 8 353 339 73 99 104 91 88 93 133 152 154 156 152 151 147 147 145 141 136 138 127 132 128 120 121 122 114 114 115 118 111 115 109 110 114 122 118 115 112 104 97 90
109 73 103 140 124 67 331 346 326 108 125 100 126 77 126 149 162 163 163 161 159 158 158 158 155 155 147 137 142 136 135 131 129 124 118 117 116 111 109 108 115 119 123 120 118 114 107 99 94
114 96 121 169 175 128 284 318 304 132 97 138 134 161 170 162 164 163 167 167 163 163 166 162 157 153 143 153 146 137 134 126 120 119 119 118 117 114 113 114 117 118 123 123 116 113 110 102 92
93 77 122 169 140 163 214 262 256 242 151 137 194 166 160 158 159 164 171 172 169 169 166 163 157 154 153 161 149 146 133 126 123 121 118 121 115 111 112 113 112 115 124 127 118 117 113 102 88
58 94 172 182 139 167 194 218 294 144 151 80 114 148 158 160 167 172 174 178 177 170 166 164 164 161 160 159 155 153 146 134 131 135 127 122 119 117 113 111 108 115 125 131 125 122 112 103 86
334 121 148 158 168 175 164 87 345 287 185 180 154 155 165 164 171 180 179 184 179 172 170 168 167 168 171 163 156 149 143 139 142 137 131 127 121 114 108 104 102 105 112 123 127 125 128 116 64
64 49 149 145 149 121 107 91 350 286 241 198 167 162 167 172 174 178 184 185 182 182 173 170 169 166 167 160 152 146 141 134 140 140 134 133 129 121 113 112 116 125 129 132 135 138 146 151 118
78 47 99 131 139 142 198 147 278 293 236 179 169 166 175 178 182 181 183 187 187 185 182 175 172 169 169 167 155 152 148 141 140 143 141 142 138 130 124 113 107 127 145 146 137 129 134 134 88
106 101 109 124 156 147 142 238 329 85 176 172 176 176 182 186 187 189 191 187 191 186 186 180 176 175 167 166 161 159 155 151 147 143 141 145 147 142 135 126 125 123 149 146 145 135 129 110 84
131 102 109 124 150 136 150 253 234 119 174 164 176 184 188 192 197 198 193 194 190 189 187 185 181 177 174 170 173 168 162 155 146 145 155 166 163 151 141 132 133 126 145 157 152 168 170 136 105
143 125 123 173 156 159 172 271 212 184 164 163 179 189 197 200 203 205 203 206 200 196 198 194 188 182 173 178 181 183 174 169 163 168 167 169 166 156 145 154 159 155 143 154 166 185 192 210 153
8 310 139 176 196 135 195 263 156 174 186 178 186 195 201 207 214 210 211 211 209 205 204 200 192 186 181 183 189 186 182 181 184 185 182 178 175 178 185 194 197 184 233 197 213 243 265 193 189
210 250 164 179 193 167 194 264 134 187 191 183 187 200 205 211 214 214 214 212 215 208 214 210 200 193 188 188 190 186 193 194 190 191 194 200 200 212 208 226 237 239 219 266 250 272 158 158 188
167 214 267 135 167 134 210 275 214 188 203 185 187 196 207 216 220 221 219 215 212 212 214 218 209 203 198 195 197 201 205 194 203 202 204 224 220 213 226 247 242 244 234 228 243 279 239 198 206
220 301 292 81 145 145 174 231 225 183 207 205 185 196 203 209 217 219 218 216 212 211 213 215 215 208 201 196 196 204 190 192 203 208 211 220 214 225 237 236 253 246 241 234 223 226 206 203 229
195 198 219 170 143 249 117 289 188 225 223 213 212 214 203 208 212 209 208 213 209 211 213 217 215 212 215 204 205 196 198 202 199 203 198 199 199 207 225 241 247 245 240 234 228 223 220 228 239
261 206 218 136 120 172 135 268 24 251 225 221 216 210 204 203 213 214 212 212 214 216 213 212 213 208 200 208 203 197 209 208 198 203 211 216 223 236 218 223 226 237 229 231 239 237 232 232 239
228 140 98 105 113 91 99 69 261 10 225 260 248 220 214 209 211 213 218 215 215 218 217 209 213 207 205 204 196 199 197 201 206 214 222 219 233 244 228 222 229 236 217 222 234 241 243 239 242
138 75 51 62 83 32 242 135 278 268 241 273 264 244 226 215 215 217 221 219 215 220 216 219 211 215 210 213 211 213 211 208 208 215 223 225 238 249 235 223 223 247 227 222 223 229 231 222 231
82 69 9 8 18 222 332 76 237 239 237 257 275 274 238 223 222 220 217 221 220 220 218 219 217 214 216 215 213 209 212 216 220 218 221 225 236 244 236 235 233 244 236 231 223 227 230 237 231
158 146 150 185 193 244 43 226 274 211 259 286 297 300 237 225 223 219 219 219 224 224 223 220 218 214 216 218 214 214 219 223 227 227 223 222 233 246 251 256 241 233 237 229 225 231 236 242 249
175 153 162 101 359 67 249 273 292 206 283 291 310 325 224 225 221 225 228 219 213 226 226 219 220 214 218 218 217 219 226 227 230 224 228 225 234 244 245 249 247 251 232 229 232 234 242 247 250
114 144 88 22 133 224 289 272 238 211 243 291 315 313 307 238 232 228 227 221 212 227 226 222 226 224 221 222 222 224 227 226 226 227 230 228 236 239 247 244 245 242 236 236 244 251 251 252 256
87 66 53 106 106 155 201 264 217 194 192 230 282 318 305 270 247 234 225 225 218 225 227 224 227 229 229 226 228 226 228 227 225 231 233 232 236 234 236 231 236 240 244 237 249 260 255 248 256
134 144 136 119 216 102 146 272 249 184 189 216 261 280 322 304 277 254 236 228 226 225 225 225 225 235 236 232 235 235 233 227 227 230 236 234 238 241 239 238 240 245 254 254 246 251 258 252 258
Height
1501 1501 1500 1500 1510 1510 1516 1512 1505 1511 1512 1513 1514 1517 1520 1523 1524 1535 1529 1532 1534 1537 1539 1542 1544 1545 1547 1547 1548 1549 1551 1552 1554 1555 1555 1556 1557 1558 1560 1562 1562 1563 1564 1565 1566 1567 1569 1568 1570
1501 1501 1501 1501 1516 1528 1523 1507 1510 1510 1511 1514 1516 1519 1521 1526 1525 1527 1531 1534 1537 1539 1541 1544 1546 1548 1548 1550 1550 1552 1554 1555 1554 1556 1557 1558 1560 1561 1563 1564 1565 1566 1568 1568 1569 1571 1571 1572 1572
1502 1502 1503 1505 1517 1528 1520 1509 1510 1513 1513 1514 1518 1520 1523 1528 1528 1530 1533 1536 1539 1542 1543 1545 1548 1550 1550 1550 1553 1554 1556 1556 1557 1558 1558 1560 1562 1563 1564 1566 1569 1568 1570 1572 1573 1574 1575 1575 1576
1503 1504 1505 1513 1520 1519 1515 1512 1513 1517 1515 1514 1516 1522 1527 1530 1532 1533 1535 1538 1540 1543 1545 1546 1548 1550 1551 1553 1556 1557 1557 1560 1559 1560 1561 1562 1564 1565 1567 1569 1570 1571 1573 1575 1576 1578 1578 1578 1579
1503 1504 1514 1520 1522 1520 1516 1514 1516 1517 1517 1517 1517 1524 1529 1533 1534 1535 1538 1540 1543 1545 1547 1549 1551 1553 1554 1556 1558 1559 1560 1560 1561 1563 1564 1565 1567 1568 1570 1572 1572 1574 1576 1579 1579 1581 1581 1581 1581
1503 1505 1521 1528 1525 1521 1517 1519 1518 1518 1519 1519 1521 1524 1533 1534 1536 1538 1541 1543 1546 1547 1549 1551 1554 1555 1557 1559 1560 1560 1560 1562 1564 1565 1566 1567 1569 1570 1572 1573 1575 1577 1579 1581 1583 1583 1583 1583 1585
1504 1509 1521 1522 1526 1524 1522 1518 1520 1521 1522 1521 1523 1529 1534 1535 1538 1540 1543 1545 1547 1549 1551 1554 1556 1558 1560 1562 1562 1564 1563 1565 1567 1568 1569 1570 1571 1573 1574 1576 1578 1579 1581 1583 1585 1585 1585 1586 1587
1503 1508 1520 1522 1522 1525 1523 1523 1521 1521 1523 1523 1526 1530 1533 1535 1538 1541 1544 1546 1548 1551 1553 1555 1557 1559 1563 1563 1565 1566 1567 1569 1570 1572 1571 1572 1573 1575 1576 1578 1580 1581 1583 1585 1587 1588 1588 1589 1590
1504 1515 1523 1521 1518 1522 1522 1525 1522 1522 1523 1524 1526 1527 1531 1534 1539 1542 1545 1548 1550 1552 1555 1557 1559 1560 1564 1565 1567 1568 1570 1571 1573 1574 1574 1575 1575 1577 1579 1581 1581 1583 1585 1587 1589 1589 1590 1591 1591
1507 1516 1516 1512 1515 1519 1521 1525 1523 1524 1523 1525 1526 1529 1533 1536 1540 1542 1545 1548 1550 1552 1555 1558 1560 1562 1564 1566 1568 1570 1571 1572 1574 1576 1577 1577 1578 1579 1581 1583 1584 1586 1588 1589 1591 1592 1592 1593 1593
1509 1513 1510 1512 1515 1518 1521 1524 1523 1523 1524 1524 1524 1529 1534 1536 1540 1543 1546 1548 1551 1554 1556 1558 1561 1563 1566 1568 1570 1571 1572 1575 1576 1578 1580 1580 1581 1583 1584 1586 1587 1589 1591 1592 1593 1594 1594 1594 1594
1510 1509 1509 1513 1517 1519 1523 1523 1523 1525 1523 1524 1526 1529 1534 1537 1540 1544 1547 1549 1552 1555 1557 1559 1562 1564 1567 1569 1571 1573 1575 1577 1579 1581 1582 1583 1584 1586 1588 1589 1590 1592 1593 1594 1594 1595 1595 1595 1595
1509 1510 1512 1515 1517 1519 1522 1523 1525 1523 1524 1526 1530 1532 1536 1539 1542 1545 1548 1551 1554 1556 1558 1560 1563 1565 1568 1570 1573 1575 1577 1579 1581 1583 1584 1585 1587 1588 1590 1592 1593 1594 1595 1595 1595 1596 1596 1596 1596
1509 1512 1516 1518 1520 1521 1523 1524 1525 1523 1524 1526 1530 1533 1537 1540 1542 1546 1548 1551 1554 1556 1559 1561 1563 1566 1569 1572 1575 1577 1579 1581 1582 1584 1586 1588 1589 1591 1592 1593 1594 1595 1596 1595 1596 1597 1598 1598 1598
1511 1515 1515 1518 1520 1523 1523 1527 1523 1523 1524 1526 1532 1535 1538 1541 1544 1545 1548 1551 1553 1557 1559 1561 1563 1566 1569 1573 1576 1578 1580 1582 1584 1586 1588 1590 1591 1592 1594 1595 1595 1596 1596 1597 1597 1597 1599 1600 1600
1510 1513 1523 1518 1519 1522 1525 1529 1521 1522 1526 1528 1532 1534 1538 1541 1542 1546 1549 1552 1554 1556 1558 1561 1564 1567 1569 1573 1575 1578 1581 1583 1586 1587 1589 1590 1592 1593 1595 1596 1597 1597 1597 1598 1598 1598 1599 1600 1601
1514 1521 1523 1522 1519 1522 1525 1523 1520 1522 1526 1528 1533 1534 1537 1540 1542 1544 1548 1551 1553 1556 1559 1561 1564 1567 1570 1573 1576 1578 1581 1584 1586 1587 1590 1591 1593 1594 1596 1597 1597 1598 1599 1599 1599 1599 1600 1601 1601
1524 1521 1517 1521 1521 1522 1525 1523 1521 1523 1524 1526 1529 1533 1535 1537 1537 1541 1546 1550 1553 1555 1558 1561 1565 1568 1570 1573 1575 1578 1581 1583 1586 1587 1589 1592 1594 1595 1596 1597 1598 1599 1599 1599 1599 1600 1601 1602 1601
1509 1512 1516 1515 1514 1520 1524 1523 1521 1522 1524 1526 1528 1530 1532 1534 1537 1541 1544 1548 1551 1554 1556 1559 1562 1566 1569 1571 1574 1577 1580 1583 1585 1587 1588 1590 1592 1594 1596 1597 1598 1599 1599 1600 1600 1600 1602 1602 1602
1509 1513 1515 1512 1513 1518 1522 1522 1519 1521 1521 1521 1522 1526 1528 1532 1535 1539 1541 1545 1548 1551 1554 1557 1560 1563 1567 1570 1573 1576 1579 1582 1584 1586 1587 1589 1592 1594 1595 1596 1597 1598 1599 1599 1600 1601 1602 1602 1602
1513 1515 1512 1512 1516 1517 1517 1523 1520 1519 1520 1520 1521 1523 1526 1527 1531 1535 1538 1541 1545 1548 1552 1555 1558 1561 1565 1569 1571 1574 1577 1580 1582 1584 1586 1589 1591 1593 1594 1595 1596 1596 1597 1599 1600 1601 1602 1603 1602
1512 1499 1500 1509 1519 1530 1515 1542 1523 1522 1521 1518 1517 1519 1522 1525 1530 1533 1536 1538 1542 1546 1550 1553 1556 1559 1563 1566 1569 1573 1576 1579 1581 1584 1587 1588 1590 1591 1592 1593 1594 1594 1595 1597 1599 1600 1601 1601 1602
1503 1494 1500 1507 1518 1522 1525 1537 1524 1522 1522 1519 1515 1515 1517 1521 1523 1527 1531 1535 1539 1543 1548 1551 1555 1558 1561 1564 1567 1571 1574 1578 1581 1583 1585 1587 1589 1590 1591 1592 1594 1594 1594 1596 1597 1598 1600 1600 1601
1492 1499 1509 1519 1525 1542 1525 1531 1533 1527 1520 1517 1513 1513 1514 1516 1520 1524 1528 1532 1536 1541 1544 1549 1552 1556 1559 1562 1566 1569 1572 1576 1578 1581 1584 1586 1587 1588 1589 1591 1592 1593 1593 1594 1596 1598 1599 1599 1600
1498 1512 1546 1543 1549 1548 1529 1533 1529 1518 1515 1513 1511 1510 1509 1511 1516 1519 1523 1527 1531 1536 1540 1543 1549 1552 1556 1560 1562 1566 1569 1573 1576 1579 1582 1583 1585 1586 1587 1589 1591 1592 1592 1593 1595 1597 1598 1598 1598
1500 1509 1540 1547 1556 1543 1529 1537 1521 1512 1513 1512 1509 1506 1504 1506 1511 1512 1516 1523 1528 1532 1536 1539 1544 1548 1553 1556 1559 1563 1567 1570 1573 1577 1579 1581 1582 1584 1586 1587 1588 1590 1591 1591 1593 1595 1596 1596 1597
1504 1514 1509 1539 1546 1544 1540 1525 1513 1512 1513 1511 1509 1506 1507 1507 1509 1512 1515 1518 1522 1527 1531 1535 1539 1544 1548 1552 1556 1559 1563 1565 1569 1573 1576 1578 1580 1582 1584 1585 1586 1587 1588 1589 1590 1592 1593 1594 1595
1490 1501 1520 1531 1545 1543 1541 1532 1526 1517 1514 1510 1508 1506 1506 1507 1506 1508 1511 1514 1516 1522 1526 1531 1535 1539 1543 1548 1551 1555 1558 1561 1565 1569 1572 1575 1577 1578 1580 1582 1584 1585 1586 1587 1588 1590 1591 1591 1592
1501 1509 1521 1527 1538 1549 1549 1537 1510 1508 1508 1510 1508 1506 1505 1504 1505 1504 1507 1510 1514 1517 1521 1526 1530 1534 1538 1542 1546 1550 1553 1557 1561 1564 1568 1571 1573 1575 1577 1578 1581 1582 1583 1584 1585 1587 1587 1588 1589
1491 1501 1510 1528 1532 1544 1545 1533 1505 1504 1505 1504 1504 1505 1504 1504 1502 1499 1500 1503 1507 1512 1516 1520 1525 1529 1534 1537 1541 1544 1548 1552 1556 1559 1563 1566 1569 1571 1573 1575 1576 1578 1580 1581 1581 1583 1583 1584 1584